User: anonymous   Login
Location: Caltech
(34.1382°N, 118.1253°W)
Time: 16:04:55
(UTC-07:00)
Language:

Cosmos 2237 Rocket - Orbit

View from above orbital plane
View from above orbital plane
View from above satellite
View from above satellite

Ground track
Ground track

The orbit data is extracted from the following two-line orbital elements,

1 22566U 93016B   16149.55234802 +.00000186 +00000-0 +12069-3 0  9996
2 22566 071.0044 154.2837 0010464 347.1548 012.9306 14.14926495196851
Epoch (UTC): 28 May 2016 13:15:22
Eccentricity: 0.0010464
inclination: 71.0044°
perigee height: 835 km
apogee height: 850 km
right ascension of ascending node: 154.2837°
argument of perigee: 347.1548°
revolutions per day: 14.14926495
mean anomaly at epoch: 12.9306°
orbit number at epoch: 19685

The dashed part of the orbit path shows where the satellite is in the earth's shadow,  

DLR